Location: �clusier
(49.9361°N, 2.7869°E)
Time: 20:27:43
(UTC+00:00)

Cosmos 1452 Rocket - Pass Details

Date: 31 October 2021
Orbit: 767 x 775 km, 74.1° (Epoch: 04 December)

Event Time Altitude Azimuth Distance (km) Brightness Sun altitude
Exits shadow 04:47:54 - 336° (NNW) 3,133 6.4 -17.9°
Reaches altitude 10° 04:49:58 10° 338° (NNW) 2,334 5.8 -17.6°
Maximum altitude 04:55:17 82° 65° (ENE) 789 3.6 -16.8°
Drops below altitude 10° 05:00:34 10° 154° (SSE) 2,315 6.4 -15.9°
Sets 05:02:56 0° 156° (SSE) 3,237 7.1 -15.5°
